Location: Campillo
(40.8621°N, 4.2488°W)
Time: 15:10:35
(UTC+00:00)

Cosmos 1777 Rocket - Pass Details

Date: 04 October 2021
Orbit: 759 x 775 km, 74.0° (Epoch: 23 October)

Event Time Altitude Azimuth Distance (km) Brightness Sun altitude
Rises 04:47:15 0° 329° (NNW) 3,225 7.0 -17.7°
Reaches altitude 10° 04:49:53 10° 319° (NW) 2,296 6.2 -17.2°
Maximum altitude 04:54:18 29° 260° (W) 1,375 4.7 -16.4°
Drops below altitude 10° 04:58:43 10° 202° (SSW) 2,287 6.2 -15.5°
Sets 05:01:20 0° 191° (S) 3,210 7.0 -15.1°
